Location: Sinnemahoning State Park
(41.4031°N, 78.0230°W)
Time: 20:56:08
(UTC-04:00)

Daily predictions for brighter satellites

Satellite Brightness Start Highest point End
(mag) Time Altitude Azimuth Time Altitude Azimuth Time Altitude Azimuth
Cosmos 2082 Rocket 3.4 19:49:00 10° N 19:53:37 25° NE 19:58:11 10° ESE
Meteor 1-24 Rocket 3.7 19:48:21 10° N 19:53:49 64° ENE 19:59:28 10° SSE
Cosmos 1812 Rocket 3.5 19:50:56 10° S 19:55:19 67° E 19:59:40 10° NNE
Lacrosse 5 1.9 19:51:22 10° SW 19:56:25 80° SE 20:01:31 10° NE
Helios 1B rocket 4.1 19:54:33 10° ENE 19:56:47 14° E 19:59:00 10° SE
Cosmos 990 Rocket 4.0 19:51:45 10° SSW 19:57:00 77° ESE 20:02:15 10° NNE
FREGAT/IRIS 2.7 19:58:29 10° S 20:01:33 85° W 20:04:37 10° NNW
Cosmos 2150 Rocket 4.3 19:56:29 10° SSW 20:01:37 73° WNW 20:06:48 10° NNE
Cosmos 1821 Rocket 4.1 19:55:53 10° S 20:02:17 86° E 20:08:39 10° N
Lacrosse 4 Rocket 2.9 20:00:19 10° SW 20:04:07 39° WNW 20:07:57 10° NNE
Cosmos 1953 3.4 20:01:21 10° SE 20:04:38 24° E 20:07:56 10° NE
Envisat 4.5 20:03:33 10° ESE 20:07:01 19° ENE 20:10:28 10° NNE
GP-B 4.4 20:05:13 10° SE 20:08:27 20° ENE 20:11:42 10° NNE
USA 186 3.0 20:08:21 11° E 20:08:57 12° ENE 20:09:57 10° NE
Helios 1A 4.2 20:07:34 10° ESE 20:10:55 24° ENE 20:14:18 10° NNE
Cosmos 1271 Rocket 4.5 20:11:41 10° ESE 20:13:59 15° E 20:16:17 10° NE
Cosmos 1125 Rocket 4.0 20:09:41 10° SSE 20:14:24 37° ESE 20:19:10 10° NE
Resurs 01 Rocket 1.7 20:10:16 10° SSE 20:14:35 56° ENE 20:18:55 10° N
Cosmos 1766 3.2 20:12:16 10° S 20:16:08 89° NE 20:20:02 10° N
Cosmos 1605 Rocket 4.0 20:14:12 10° S 20:20:23 66° E 20:26:41 10° NNE
Geosat 4.4 20:15:44 10° NE 20:20:25 39° ESE 20:25:05 10° S
Cosmos-2242 4.2 20:19:26 10° SE 20:22:41 22° E 20:25:56 10° NE
Lacrosse 5 rocket 2.9 20:21:20 10° NNW 20:24:20 20° NNE 20:26:41 12° ENE
SeaSat 1 2.7 20:24:09 10° SSE 20:29:03 73° WSW 20:34:00 10° NNW
HJ-1C 3.9 20:25:44 10° S 20:29:05 63° W 20:32:30 10° NNW
Cosmos 1674 3.6 20:26:31 10° NNE 20:29:48 28° ENE 20:31:54 17° SE
Cosmos 2123 Rocket 4.2 20:28:01 10° N 20:34:21 81° W 20:40:36 10° S
SAR-Lupe-4 4.0 20:31:34 13° SE 20:34:28 42° ENE 20:37:52 10° N
SL-27 R/B 4.2 20:33:36 10° NW 20:36:55 35° WSW 20:40:15 10° S
RESURS DK-1 3.7 20:35:10 10° NW 20:39:02 39° WSW 20:42:52 10° S
Cosmos 2344 4.1 20:34:27 10° SW 20:42:04 68° NW 20:50:46 10° NNE
CZ-2D R/B 3.2 20:39:25 10° SSE 20:43:17 86° ENE 20:47:12 10° N
BREEZE-M DEB (TANK) 4.1 20:41:52 10° NW 20:43:35 17° NNE 20:44:40 14° NE
Meteor 1-21 Rocket 4.3 20:38:13 10° N 20:44:01 64° ENE 20:49:53 10° SSE
Meteor 1-29 3.5 20:42:49 10° NNE 20:46:04 36° E 20:48:19 17° SSE
In-Cosmos 22 4.4 20:41:05 10° NNW 20:46:22 69° W 20:51:36 10° S
CZ-3B DEB 3.5 20:35:47 10° WSW 20:46:32 54° NW 20:51:30 10° NE
Cosmos 1805 3.4 20:44:15 10° SSW 20:48:08 75° W 20:52:03 10° N
Cosmos 1818 3.5 20:44:55 10° NNW 20:50:24 89° SW 20:54:41 17° SSE
GPS 2-05 Rocket1 4.2 20:47:52 10° SW 20:50:51 25° SSE 20:51:23 24° SSE
COSMOS 2487 2.5 20:48:20 10° N 20:51:53 57° ENE 20:53:15 32° SE
ALOS 3.8 20:48:24 10° SSW 20:52:43 37° W 20:57:03 10° NNW
SAR-Lupe-1 4.0 20:51:15 23° SSE 20:53:18 63° ENE 20:56:52 10° N
Cosmos 1153 Rocket 4.5 20:47:21 10° S 20:53:44 81° E 21:00:10 10° N
Resurs 1-3 4.1 20:50:40 10° S 20:54:59 62° WSW 20:59:22 10° NNW
Cosmos 1269 Rocket 3.9 20:51:29 10° NNW 20:56:47 78° ENE 21:00:49 18° SSE
Cosmos 2061 Rocket 4.3 20:51:06 10° SSE 20:57:08 47° E 21:03:14 10° NNE
Meteor 1-4 Rocket 2.8 20:56:06 10° SSW 20:59:32 65° W 21:03:00 10° N
Timation 1 Rocket 4.5 20:54:48 10° SSW 21:00:49 80° WNW 21:06:53 10° NNE
Timation 2 Rocket 3.9 20:55:28 10° NNW 21:01:48 66° ENE 21:05:25 25° SE
Cosmos 1833 Rocket 2.6 20:56:36 10° NNW 21:02:14 72° ENE 21:05:39 24° SE
Cosmos 1470 2.7 21:00:37 13° S 21:04:08 59° E 21:08:04 10° NNE
Cosmos 1408 Rocket 3.5 21:00:08 10° N 21:04:37 80° E 21:07:46 19° SSE
Cosmos 2278 Rocket 3.6 21:02:42 10° SW 21:08:00 40° WNW 21:13:21 10° N
Cosmos 1340 Rocket 2.8 21:07:36 10° N 21:11:35 58° ENE 21:12:09 51° ESE
Spot 1 4.5 21:07:43 12° S 21:11:56 73° WSW 21:16:52 10° NNW
Cosmos 372 Rocket 3.9 21:06:51 10° SSW 21:11:58 88° WNW 21:17:09 10° NNE
CZ-4B DEB 2.5 21:12:04 77° S 21:12:17 89° WSW 21:15:24 10° NNW
Cosmos 1733 3.0 21:10:59 25° S 21:13:10 73° E 21:17:03 10° NNE
Cosmos 1459 Rocket 3.9 21:07:50 10° S 21:14:02 69° E 21:20:12 10° NNE
Cosmos 1842 Rocket 4.5 21:18:20 31° NE 21:18:20 31° NE 21:21:12 10° NNE
USA 215 3.2 21:11:08 10° NE 21:17:34 58° SE 21:23:57 10° SSW
ATLAS 5 CENTAUR R/B 1.6 21:14:29 10° SSW 21:19:07 79° SE 21:24:13 10° NE
Cosmos 2173 Rocket 3.9 21:13:40 10° S 21:19:48 74° E 21:26:04 10° N
Cosmos 158 Rocket 4.0 21:14:42 10° NNW 21:19:51 80° WSW 21:22:45 27° S
ISS -2.4 21:16:41 10° SW 21:18:25 28° SSW 21:18:25 28° SSW
Cosmos 2297 4.2 21:18:05 10° SW 21:23:44 63° WNW 21:29:27 10° NNE
Cosmos 2151 4.3 21:20:48 10° NNE 21:23:15 25° NE 21:23:15 25° NE
Cosmos 1867 4.0 21:20:49 10° SW 21:26:12 62° NW 21:31:39 10° NNE
Abrixas 4.3 21:25:10 10° W 21:26:58 25° WSW 21:26:58 25° WSW
Helios 1B rocket 3.5 21:28:22 10° N 21:32:20 46° WNW 21:36:16 10° SW
Meteor 1-11 4.3 21:30:57 10° N 21:36:24 51° ENE 21:36:36 51° E
Cosmos 494 Rocket 4.1 21:32:18 10° N 21:37:20 53° ENE 21:37:20 53° ENE
Cosmos 2082 Rocket 2.8 21:32:30 10° NNW 21:38:02 53° WSW 21:41:10 25° S
SL-14 R/B 4.4 21:35:44 10° N 21:38:04 33° NNE 21:38:04 33° NNE
Lacrosse 5 3.9 21:35:43 10° W 21:39:54 25° NNW 21:44:07 10° NNE
Meteor 2-17 Rocket 4.3 21:40:14 22° S 21:44:20 82° E 21:50:30 10° N
SPOT 5 3.7 21:45:02 42° NE 21:45:02 42° NE 21:49:28 10° N
Envisat 3.5 21:42:59 27° SSW 21:45:34 55° W 21:50:35 10° NNW
Cosmos 1939 Rocket 3.5 21:45:32 50° SW 21:46:06 55° W 21:50:11 10° NNW
Meteor 1-16 Rocket 4.2 21:44:16 45° S 21:46:08 75° E 21:52:04 10° NNE
Cosmos 1271 Rocket 4.2 21:45:54 10° SW 21:49:38 38° WNW 21:53:26 10° N
MetOp-A 4.2 21:50:03 59° ENE 21:50:03 59° ENE 21:55:03 10° N
USA 267 4.1 21:48:09 32° ENE 21:50:07 39° NNE 21:56:04 10° NW
ARGOS 3.8 21:51:33 40° NE 21:51:33 40° NE 21:55:44 10° N
H-2A R/B 3.6 21:52:50 24° NE 21:52:50 24° NE 21:55:49 10° N
Cosmos 2016 Rocket 3.9 21:47:02 20° S 21:51:35 86° W 21:57:46 10° N
Cosmos 1725 Rocket 3.8 21:59:08 70° SE 21:59:43 76° E 22:05:56 10° N
Terra 4.2 22:04:46 13° NNE 22:04:46 13° NNE 22:05:32 10° NNE
ERS-1 Rocket 3.1 22:03:22 69° WSW 22:03:31 69° WSW 22:08:33 10° NNW
Lacrosse 5 rocket 2.8 22:00:05 10° NW 22:02:25 33° WNW 22:02:25 33° WNW
Tsikada Rocket 3.9 22:11:10 10° N 22:17:24 86° W 22:17:28 86° WSW
Cosmos 2369 Rocket 4.4 22:34:54 14° NNE 22:34:54 14° NNE 22:35:34 10° NNE
Cosmos 2251 Rocket 4.5 22:29:49 10° NNW 22:34:11 44° W 22:34:11 44° W
CZ-3B DEB 4.3 22:56:01 10° NW 22:59:07 14° NNW 22:59:39 14° NNW
USA 215 4.1 22:54:15 10° NE 23:00:27 47° NNW 23:06:37 10° W
ATLAS 5 CENTAUR R/B 4.4 23:01:02 10° W 23:04:30 19° NW 23:08:11 10° N
H-2A R/B 4.3 23:33:28 22° NW 23:33:28 22° NW 23:35:34 10° NNW
USA 267 4.3 23:35:30 39° WNW 23:35:30 39° WNW 23:39:22 10° NW
